Miscellaneous Local Product
Issued by NWS Hastings, NE

Home | Current Version | Previous Version | Graphics & Text | Print | Product List | Glossary On
Versions: 1 2 3 4 5 6 7 8 9 10 11 12 13 14 15 16 17 18 19 20 21 22 23 24 25 26 27 28 29 30 31 32 33 34 35 36 37 38 39 40 41 42 43 44 45 46 47 48 49 50
000
AXUS43 KGID 241502
MISGRI

GID CWA HOURLY WEATHER ROUNDUP
NATIONAL WEATHER SERVICE HASTINGS NE
1000 AM CDT THU MAY 24 2018

NOTE: "FAIR" INDICATES FEW OR NO CLOUDS BELOW 12,000 FEET WITH NO
SIGNIFICANT WEATHER AND/OR OBSTRUCTIONS TO VISIBILITY.

...SOUTH CENTRAL NEBRASKA...

CITY           SKY/WX    TMP DP  RH WIND       PRES   REMARKS
GRAND ISLAND   SUNNY     74  63  68 SE13      30.01F
KEARNEY        SUNNY     72  60  66 SE14      30.01F
HASTINGS       MOSUNNY   73  62  68 SE12G21   30.02F
ORD            MOSUNNY   73  62  68 SE14G20   29.96F
YORK           CLOUDY    75  66  73 S14       30.02F
AURORA         MOSUNNY   74  64  70 S13       30.02F
LEXINGTON      SUNNY     71  61  71 SE13      29.99F
HOLDREGE       SUNNY     71  60  68 SE12      30.00F
HEBRON         SUNNY     79  60  52 S8        30.03S

...NEBRASKA PANHANDLE...

CITY           SKY/WX    TMP DP  RH WIND       PRES   REMARKS
CHADRON        SUNNY     70  54  56 SW16      29.97S
ALLIANCE       SUNNY     68  58  70 SW6       30.03S
SCOTTSBLUFF    SUNNY     65  52  62 NW9       30.05R
SIDNEY         SUNNY     66  56  70 NW7       30.06F

...WESTERN AND NORTH CENTRAL NEBRASKA...

CITY           SKY/WX    TMP DP  RH WIND       PRES   REMARKS
VALENTINE      MOSUNNY   72  60  66 S9        29.96F
AINSWORTH      MOSUNNY   70  61  73 S17       29.96S
ONEILL         PTSUNNY   75  63  67 SE12      29.98F
BROKEN BOW     SUNNY     71  63  75 SE12      29.99S
IMPERIAL       SUNNY     71  56  58 VRB3      29.99F
NORTH PLATTE   SUNNY     73  61  65 S6        29.98F
MCCOOK         SUNNY     70  59  68 VRB7      29.98F

...EASTERN NEBRASKA...

CITY           SKY/WX    TMP DP  RH WIND       PRES   REMARKS
NORFOLK        SUNNY     76  66  71 SE12      29.99F
SO SIOUX CITY  CLOUDY    76  66  71 S12       30.01F
TEKAMAH        CLOUDY    74  67  78 S8        30.03F
COLUMBUS       MOSUNNY   75  64  68 S10       30.02F
ALBION         MOSUNNY   75  67  77 SE12      30.00F
OMAHA EPPLEY   CLOUDY    76  66  71 S12       30.04F
OFFUTT AFB     CLOUDY    75  68  77 S6        30.04F
MILLARD        CLOUDY    76  68  76 SE10      30.03F
LINCOLN        SUNNY     77  65  66 S8        30.04F
NEBRASKA CITY  CLOUDY    77  70  78 S6        30.06F
BEATRICE       SUNNY     79  66  64 S10G16    30.04F
FALLS CITY     SUNNY     79  67  66 S10G20    30.06S

...NORTHERN KANSAS...

CITY           SKY/WX    TMP DP  RH WIND       PRES   REMARKS
GOODLAND       MOSUNNY   72  56  57 SW15      30.01S
HILL CITY      SUNNY     75  59  57 S14       30.01R
NORTON         SUNNY     79  57  47 S12       29.99S
PHILLIPSBURG   SUNNY     73  59  60 SE10      30.01S
SMITH CENTER   SUNNY     72  57  60 S14       30.02R
HAYS           CLOUDY    69  60  73 S10       30.03R
RUSSELL        MOSUNNY   73  62  68 S18       30.02R
CONCORDIA      SUNNY     78  62  57 SE14      30.03S
SALINA         CLOUDY    76  64  66 SE10      30.03S
TOPEKA         PTSUNNY   75  69  81 S10       30.08R



USA.gov is the U.S. government's official web portal to all federal, state and local government web resources and services.